Regional Weather Roundup
Issued by NWS Boston, MA

Current Version | Previous Version | Text Only | Print | Product List | Glossary Off
Versions: 1 2 3 4 5 6 7 8 9 10 11 12 13 14 15 16 17 18 19 20 21 22 23 24 25 26 27 28 29 30 31 32 33 34 35 36 37 38 39 40 41 42 43 44 45 46 47 48 49 50
000 ASUS41 KBOX 290310 RWRBOX REGIONAL WEATHER ROUNDUP NATIONAL WEATHER SERVICE TAUNTON MA 1100 PM EDT SUN MAY 28 2017 NOTE: "FAIR" INDICATES FEW OR NO CLOUDS BELOW 12,000 FEET WITH NO SIGNIFICANT WEATHER AND/OR OBSTRUCTIONS TO VISIBILITY. MAZALL-290400- EASTERN MASSACHUSETTS CITY SKY/WX TMP DP RH WIND PRES REMARKS BOSTON CLOUDY 58 48 69 S9 30.00S BEVERLY CLOUDY 60 50 69 S5 29.98F LAWRENCE CLOUDY 58 53 84 CALM 30.00F BEDFORD CLOUDY 58 48 69 S6 29.98S BLUE HILL N/A 54 46 74 S13 29.99S NORWOOD CLOUDY 57 49 74 S7 30.00R MARSHFIELD CLOUDY 55 50 82 S6 30.01S PLYMOUTH MOCLDY 52 48 86 S3 30.02S TAUNTON PTCLDY 51 48 89 CALM 30.01S NEW BEDFORD CLOUDY 53 48 83 SE6 30.00F $$ MAZALL-290400- CAPE COD AND THE ISLANDS CITY SKY/WX TMP DP RH WIND PRES REMARKS FALMOUTH N/A N/A N/A N/A MISG N/A HYANNIS CLOUDY 52 48 86 SE3 30.00F CHATHAM CLOUDY 50 48 93 S5 30.03F PROVINCETOWN PTCLDY 52 48 86 S8 30.02F NANTUCKET MOCLDY 50 46 86 SE10 30.02F MARTHAS VNYRD PTCLDY 52 47 83 SE7 30.01F $$ MAZALL-290400- CENTRAL AND WESTERN MASSACHUSETTS CITY SKY/WX TMP DP RH WIND PRES REMARKS WORCESTER CLOUDY 55 45 68 S6 29.98F FITCHBURG MOCLDY 62 51 67 S6 29.98F ORANGE CLOUDY 59 53 80 S7 29.97S SPRINGFIELD MOCLDY 58 48 70 S7 29.96S WESTFIELD MOCLDY 56 50 80 S3 29.97 NORTH ADAMS N/A N/A N/A N/A MISG 29.93F $$ RIZALL-290400- RHODE ISLAND CITY SKY/WX TMP DP RH WIND PRES REMARKS PROVIDENCE CLOUDY 53 51 93 CALM 30.01S NEWPORT MOCLDY 52 51 97 SE3 30.00F BLOCK ISLAND CLOUDY 54 52 93 SE9 29.99S SMITHFIELD MOCLDY 51 49 92 CALM 30.00F WESTERLY CLOUDY 54 51 90 NE3 29.99F $$ CTZALL-290400- CONNECTICUT CITY SKY/WX TMP DP RH WIND PRES REMARKS BRADLEY INTL CLOUDY 57 49 74 SE6 29.97F HARTFORD CLOUDY 57 50 77 SE6 29.97F BRIDGEPORT CLOUDY 59 52 77 E9 29.96S DANBURY CLOUDY 56 48 74 E3 29.97S GROTON CLOUDY 55 51 86 E5 29.98S NEW HAVEN CLOUDY 57 52 83 E6 29.96F CHESTER FAIR 54 54 100 CALM 29.98S MERIDEN CLOUDY 56 51 84 CALM 29.97F WILLIMANTIC PTCLDY 56 51 84 CALM 29.99F OXFORD N/A 55 46 71 SE3 29.98S $$ MEZ002-015-021-024-NHZ003-005-008-011-012-014-VTZ005-008-290400- NORTHERN NEW ENGLAND CITY SKY/WX TMP DP RH WIND PRES REMARKS PORTLAND ME CLOUDY 49 47 93 SE5 30.04S BANGOR ME PTCLDY 47 44 90 S9 30.05R CONCORD NH CLOUDY 55 50 83 E7 29.98F MANCHESTER NH CLOUDY 55 49 80 E3 29.97F NASHUA NH CLOUDY 60 54 80 E5 29.98F PORTSMOUTH NH CLOUDY 50 48 93 E7 29.99S JAFFREY NH CLOUDY 59 56 89 S6 29.98F KEENE NH CLOUDY 60 55 83 S6 29.96S BURLINGTON VT CLOUDY 67 53 61 S5 29.87F MT. WASHINGTON FOG 39 39 100 S10 N/A VSB 1/16 $$ NYZ052-076-290400- EASTERN NEW YORK CITY SKY/WX TMP DP RH WIND PRES REMARKS ALBANY CLOUDY 64 52 64 S12G23 29.91R NEW YORK CITY CLOUDY 62 50 64 E14 29.93S $$ ANZALL-290400- MARINE OBSERVATIONS STATION/POSITION TIME TEMP WIND PRES VSBY WAVE AIR SEA DIR/SP/G HT/PER (UTC) (F) (DEG/KT/KT) (MB) (MI) (FT/S) BOSTON BUOY 0250 54 54 150/ 12/ 14 1015.0F 2/ 8 BUZZARDS BAY 0200 52 130/ 12/ 12 1016.4F NANTUCKET SOUND 0250 54 1016.3F 1 MASS BAY-STELLWA 0204 53 51 160/ 14/ 16 1015.1F 4/ 5 ISLE OF SHOALS 0200 49 120/ 10/ 10 1015.8F S OF BLOCK IS 0255 54 N/A 3/ 8 $$ ......................KEY......................... SKY/WX - SKY CONDITION/PRESENT WEATHER TMP - TEMPERATURE IN FAHRENHEIT DWPT - DEWPOINT IN FAHRENHEIT RH - RELATIVE HUMIDITY IN PERCENT WIND - DIRECTION AND SPEED IN MPH PRES - MEAN SEA LEVEL PRESSURE IN INCHES OF HG WCI - WIND CHILL INDEX VSB - VISIBILITY IN MILES HX - HEAT INDEX TC - TEMPERATURE IN CELSIUS VRB - VARIABLE WIND DIRECTION N/A - NOT AVAILABLE

USA.gov is the U.S. government's official web portal to all federal, state and local government web resources and services.